Estación de San Javier

Ultimos registro cada 15 minutos 78
Estación Fecha / Hora Temperatura Humedad Lluvia Velocidad Dirección Radiación Presion
78 San Javier 07-05-2026 19:15 10,9 77 0 0 13 0 1026,9
77 San Javier 07-05-2026 19:00 10,9 77 0 0 5 0 1026,5
76 San Javier 07-05-2026 18:45 11 76 0 0 15 0 1026,4
75 San Javier 07-05-2026 18:30 11,2 75 0 0 9 0 1026,5
74 San Javier 07-05-2026 18:15 11,4 73 0 0 9 0 1026,3
73 San Javier 07-05-2026 18:00 11,7 72 0 0 26 0 1026,3
72 San Javier 07-05-2026 17:45 12 71 0 0 360 0 1026,3
71 San Javier 07-05-2026 17:30 12,2 70 0 0 350 9 1026,9
70 San Javier 07-05-2026 17:15 12,4 69 0 1,3 355 12 1027,1
69 San Javier 07-05-2026 17:00 12,8 69 0 0 360 23 1026,5
68 San Javier 07-05-2026 16:45 13,1 69 0 1,3 360 42 1026,5
67 San Javier 07-05-2026 16:30 13,4 67 0 0 5 42 1026,5
66 San Javier 07-05-2026 16:15 13,6 67 0 0 5 62 1026,4
65 San Javier 07-05-2026 16:00 13,8 64 0 0 19 90 1026,4
64 San Javier 07-05-2026 15:45 14,3 66 0 0 5 116 1026,2
63 San Javier 07-05-2026 15:30 14,5 63 0 0 40 146 1026,5
62 San Javier 07-05-2026 15:15 14,8 65 0 0 53 204 1026,6
61 San Javier 07-05-2026 15:00 14,7 66 0 0 22 207 1026,7
60 San Javier 07-05-2026 14:45 15,1 64 0 0,4 108 239 1026,7
59 San Javier 07-05-2026 14:30 15,4 66 0 0 14 283 1026,1
58 San Javier 07-05-2026 14:15 15,5 64 0 0,9 9 371 1026,4
57 San Javier 07-05-2026 14:00 15,3 66 0 0,4 37 485 1026,7
56 San Javier 07-05-2026 13:45 14,9 66 0 0,4 360 533 1026,5
55 San Javier 07-05-2026 13:30 14,8 67 0 0,4 350 573 1026,5
54 San Javier 07-05-2026 13:15 14,8 67 0 0,9 344 561 1027,3
53 San Javier 07-05-2026 13:00 14,6 67 0 0 52 554 1027,2
52 San Javier 07-05-2026 12:45 14,3 70 0 0,9 92 554 1027,1
51 San Javier 07-05-2026 12:30 14,1 69 0 2,2 355 554 1027,5
50 San Javier 07-05-2026 12:15 13,9 70 0 0,9 119 552 1027,7
49 San Javier 07-05-2026 12:00 13,6 74 0 1,3 5 543 1027,6
48 San Javier 07-05-2026 11:45 13 75 0 0 10 531 1027,7
47 San Javier 07-05-2026 11:30 12,9 75 0 0 65 519 1028,1
46 San Javier 07-05-2026 11:15 12,4 76 0 0,4 355 501 1027,9
45 San Javier 07-05-2026 11:00 12,1 77 0 0 54 483 1028
44 San Javier 07-05-2026 10:45 11,4 83 0 0 72 455 1027,9
43 San Javier 07-05-2026 10:30 10,7 83 0 0 23 427 1028,2
42 San Javier 07-05-2026 10:15 10,3 84 0 0 22 399 1028,3
41 San Javier 07-05-2026 10:00 9,7 85 0 0 32 367 1028,1
40 San Javier 07-05-2026 09:45 9,1 89 0 0 360 336 1028
39 San Javier 07-05-2026 09:30 8,6 90 0 0 342 294 1028,1
38 San Javier 07-05-2026 09:15 7,9 94 0 0 360 243 1028
37 San Javier 07-05-2026 09:00 7,4 95 0 0,4 355 204 1028
36 San Javier 07-05-2026 08:45 6,9 96 0 0 19 158 1027,9
35 San Javier 07-05-2026 08:30 6,2 96 0 0 309 97 1027,5
34 San Javier 07-05-2026 08:15 4,9 95 0 0 303 72 1027,2
33 San Javier 07-05-2026 08:00 4,2 94 0 0 311 37 1027,2
32 San Javier 07-05-2026 07:45 4,4 93 0 0 311 11 1027,4
31 San Javier 07-05-2026 07:30 4,9 94 0 0 311 0 1027,1
30 San Javier 07-05-2026 07:15 4,7 93 0 0 311 0 1027
29 San Javier 07-05-2026 07:00 5,1 94 0 0 311 0 1026,7
28 San Javier 07-05-2026 06:45 5,3 93 0 0 311 0 1026,4
27 San Javier 07-05-2026 06:30 5,7 94 0 0 311 0 1026,3
26 San Javier 07-05-2026 06:15 5,8 94 0 0 311 0 1026,3
25 San Javier 07-05-2026 06:00 6,1 95 0 0 5 0 1026,2
24 San Javier 07-05-2026 05:45 5,7 94 0 0 33 0 1025,9
23 San Javier 07-05-2026 05:30 5,6 93 0 0 33 0 1025,6
22 San Javier 07-05-2026 05:15 5,9 93 0 0 319 0 1025,3
21 San Javier 07-05-2026 05:00 6,3 93 0 0 319 0 1025,3
20 San Javier 07-05-2026 04:45 6,6 94 0 0 319 0 1025,4
19 San Javier 07-05-2026 04:30 6,6 94 0 0 317 0 1025,3
18 San Javier 07-05-2026 04:15 6,6 94 0 0 317 0 1025,1
17 San Javier 07-05-2026 04:00 6,6 93 0 0 322 0 1024,9
16 San Javier 07-05-2026 03:45 7 93 0 0 322 0 1024,7
15 San Javier 07-05-2026 03:30 7,2 93 0 0 316 0 1024,8
14 San Javier 07-05-2026 03:15 7,1 93 0 0 22 0 1024,7
13 San Javier 07-05-2026 03:00 7,2 93 0 0 22 0 1024,5
12 San Javier 07-05-2026 02:45 7,4 93 0 0 22 0 1024,6
11 San Javier 07-05-2026 02:30 7,6 92 0 0 22 0 1024,6
10 San Javier 07-05-2026 02:15 7,9 92 0 0 22 0 1024,7
9 San Javier 07-05-2026 02:00 8,2 93 0 0 19 0 1024,7
8 San Javier 07-05-2026 01:45 8,1 92 0 0 19 0 1024,6
7 San Javier 07-05-2026 01:30 8,4 92 0 0 19 0 1024,1
6 San Javier 07-05-2026 01:15 8,7 92 0 0 19 0 1023,9
5 San Javier 07-05-2026 01:00 8,8 93 0 0 19 0 1023,9
4 San Javier 07-05-2026 00:45 8,7 92 0 0 44 0 1023,8
3 San Javier 07-05-2026 00:30 8,8 92 0 0 43 0 1023,8
2 San Javier 07-05-2026 00:15 8,9 92 0 0 43 0 1023,7
1 San Javier 07-05-2026 00:00 9 91 0 0 78 0 1023,7